Location: Berg
(47.2344°N, 9.5296°E)
Time: 16:54:51
(UTC+00:00)

AAUSAT CUBESAT 2 - Pass Details

Date: 06 December 2021
Orbit: 572 x 586 km, 97.5° (Epoch: 16 January)

Event Time Altitude Azimuth Distance (km) Brightness Sun altitude
Rises 04:00:51 0° 20° (NNE) 2,799 ? -28.4°
Reaches altitude 10° 04:03:09 10° 30° (NNE) 1,897 ? -28.0°
Maximum altitude 04:06:56 35° 97° (E) 947 ? -27.3°
Drops below altitude 10° 04:10:42 10° 164° (SSE) 1,891 ? -26.7°
Sets 04:13:00 0° 173° (S) 2,788 ? -26.3°
